| time (UTC) | temp F | wind direction | speed MPH | gust MPH | rain 1hr in | rain 24hr in | rain mn in | humidity % | barometer mb |
| 20260901014515 | 81 | 262 | 0.0 | 4.0 | 0.00 | 0.00 | 0.00 | 18 | 1012.9 |
| 20260901013015 | 83 | 291 | 2.0 | 8.0 | 0.00 | 0.00 | 0.00 | 17 | 1012.8 |
| 20260901011513 | 85 | 262 | 1.0 | 8.0 | 0.00 | 0.00 | 0.00 | 17 | 1012.6 |
| 20260901010012 | 86 | 281 | 3.0 | 6.0 | 0.00 | 0.00 | 0.00 | 19 | 1012.3 |
| 20260901004511 | 87 | 258 | 1.0 | 7.0 | 0.00 | 0.00 | 0.00 | 20 | 1012.5 |
| 20260901003010 | 88 | 271 | 1.0 | 4.0 | 0.00 | 0.00 | 0.00 | 19 | 1012.2 |
| 20260901001510 | 87 | 274 | 1.0 | 8.0 | 0.00 | 0.00 | 0.00 | 20 | 1012.2 |
| 20260901000008 | 87 | 271 | 2.0 | 10.0 | 0.00 | 0.00 | 0.00 | 21 | 1012.2 |
| 20260831234508 | 88 | 290 | 2.0 | 8.0 | 0.00 | 0.00 | 0.00 | 21 | 1012.1 |
| 20260831233012 | 89 | 276 | 4.0 | 11.0 | 0.00 | 0.00 | 0.00 | 22 | 1012.2 |
| 20260831231514 | 90 | 238 | 2.0 | 9.0 | 0.00 | 0.00 | 0.00 | 23 | 1012.0 |
| 20260831230006 | 90 | 289 | 3.0 | 9.0 | 0.00 | 0.00 | 0.00 | 23 | 1012.0 |
| 20260831224505 | 91 | 249 | 2.0 | 9.0 | 0.00 | 0.00 | 0.00 | 23 | 1011.9 |
| 20260831223005 | 92 | 313 | 0.0 | 4.0 | 0.00 | 0.00 | 0.00 | 22 | 1012.0 |
| 20260831221503 | 91 | 298 | 2.0 | 6.0 | 0.00 | 0.00 | 0.00 | 21 | 1012.2 |
| 20260831220001 | 92 | 316 | 1.0 | 5.0 | 0.00 | 0.00 | 0.00 | 21 | 1012.3 |
| 20260831214622 | 91 | 15 | 0.0 | 3.0 | 0.00 | 0.00 | 0.00 | 21 | 1012.5 |
| 20260831213058 | 90 | 290 | 1.0 | 4.0 | 0.00 | 0.00 | 0.00 | 22 | 1012.7 |
| 20260831211553 | 88 | 102 | 0.0 | 7.0 | 0.00 | 0.00 | 0.00 | 23 | 1012.9 |
| 20260831210049 | 88 | 101 | 3.0 | 7.0 | 0.00 | 0.00 | 0.00 | 23 | 1013.2 |
| 20260831204548 | 88 | 317 | 1.0 | 3.0 | 0.00 | 0.00 | 0.00 | 24 | 1013.4 |
| 20260831203045 | 87 | 311 | 0.0 | 2.0 | 0.00 | 0.00 | 0.00 | 25 | 1013.6 |
| 20260831201541 | 85 | 253 | 0.0 | 5.0 | 0.00 | 0.00 | 0.00 | 26 | 1013.8 |
| 20260831200038 | 85 | 66 | 1.0 | 4.0 | 0.00 | 0.00 | 0.00 | 26 | 1014.1 |
| 20260831194544 | 84 | 72 | 0.0 | 2.0 | 0.00 | 0.00 | 0.00 | 28 | 1014.3 |
| 20260831193031 | 82 | 204 | 0.0 | 3.0 | 0.00 | 0.00 | 0.00 | 31 | 1014.6 |
| 20260831191529 | 82 | 117 | 0.0 | 0.0 | 0.00 | 0.00 | 0.00 | 30 | 1014.8 |
| 20260831190024 | 79 | 51 | 0.0 | 1.0 | 0.00 | 0.00 | 0.00 | 32 | 1015.1 |
| 20260831184520 | 77 | 264 | 0.0 | 3.0 | 0.00 | 0.00 | 0.00 | 33 | 1015.3 |
| 20260831183018 | 76 | 275 | 0.0 | 3.0 | 0.00 | 0.00 | 0.00 | 34 | 1015.5 |
| 20260831181516 | 76 | 143 | 0.0 | 0.0 | 0.00 | 0.00 | 0.00 | 35 | 1015.7 |
| 20260831180012 | 74 | 276 | 0.0 | 1.0 | 0.00 | 0.00 | 0.00 | 36 | 1015.9 |
| 20260831174507 | 72 | 275 | 0.0 | 1.0 | 0.00 | 0.00 | 0.00 | 38 | 1016.1 |
| 20260831173004 | 70 | 248 | 0.0 | 2.0 | 0.00 | 0.00 | 0.00 | 40 | 1016.3 |
| 20260831171601 | 69 | 255 | 0.0 | 3.0 | 0.00 | 0.00 | 0.00 | 41 | 1016.3 |
| 20260831170100 | 68 | 301 | 0.0 | 1.0 | 0.00 | 0.00 | 0.00 | 43 | 1016.4 |
| 20260831164555 | 66 | 276 | 0.0 | 1.0 | 0.00 | 0.00 | 0.00 | 46 | 1016.6 |
| 20260831163050 | 65 | 268 | 0.0 | 1.0 | 0.00 | 0.00 | 0.00 | 47 | 1016.7 |
| 20260831161546 | 63 | 256 | 0.0 | 1.0 | 0.00 | 0.00 | 0.00 | 50 | 1016.9 |
| 20260831160044 | 62 | 259 | 0.0 | 0.0 | 0.00 | 0.00 | 0.00 | 51 | 1017.0 |
| 20260831154544 | 62 | 255 | 0.0 | 0.0 | 0.00 | 0.00 | 0.00 | 52 | 1017.1 |
| 20260831153042 | 61 | 98 | 0.0 | 0.0 | 0.00 | 0.00 | 0.00 | 55 | 1017.1 |
| 20260831151539 | 57 | 98 | 0.0 | 0.0 | 0.00 | 0.00 | 0.00 | 62 | 1017.2 |
| 20260831150037 | 54 | 98 | 0.0 | 2.0 | 0.00 | 0.00 | 0.00 | 69 | 1017.3 |
| 20260831144537 | 52 | 89 | 0.0 | 0.0 | 0.00 | 0.00 | 0.00 | 71 | 1017.2 |
| 20260831143046 | 49 | 89 | 0.0 | 0.0 | 0.00 | 0.00 | 0.00 | 74 | 1017.1 |
| 20260831141535 | 49 | 89 | 0.0 | 1.0 | 0.00 | 0.00 | 0.00 | 75 | 1017.0 |
| 20260831140035 | 49 | 90 | 0.0 | 0.0 | 0.00 | 0.00 | 0.00 | 75 | 1016.9 |
| 20260831134535 | 49 | 90 | 0.0 | 0.0 | 0.00 | 0.00 | 0.00 | 74 | 1016.9 |
| 20260831133033 | 49 | 90 | 0.0 | 0.0 | 0.00 | 0.00 | 0.00 | 74 | 1016.8 |
| 20260831131543 | 49 | 90 | 0.0 | 0.0 | 0.00 | 0.00 | 0.00 | 73 | 1016.7 |
| 20260831130029 | 50 | 90 | 0.0 | 0.0 | 0.00 | 0.00 | 0.00 | 72 | 1016.8 |
| 20260831124529 | 50 | 90 | 0.0 | 0.0 | 0.00 | 0.00 | 0.00 | 72 | 1016.9 |
| 20260831123029 | 50 | 90 | 0.0 | 0.0 | 0.00 | 0.00 | 0.00 | 72 | 1016.8 |
| 20260831121525 | 50 | 90 | 0.0 | 0.0 | 0.00 | 0.00 | 0.00 | 71 | 1016.8 |
| 20260831120022 | 50 | 90 | 0.0 | 0.0 | 0.00 | 0.00 | 0.00 | 70 | 1016.8 |
| 20260831114521 | 51 | 90 | 0.0 | 0.0 | 0.00 | 0.00 | 0.00 | 70 | 1016.9 |
| 20260831113022 | 51 | 90 | 0.0 | 0.0 | 0.00 | 0.00 | 0.00 | 69 | 1017.0 |
| 20260831111517 | 51 | 90 | 0.0 | 0.0 | 0.00 | 0.00 | 0.00 | 68 | 1017.0 |
| 20260831110016 | 52 | 90 | 0.0 | 0.0 | 0.00 | 0.00 | 0.00 | 67 | 1017.0 |
| 20260831104513 | 52 | 90 | 0.0 | 0.0 | 0.00 | 0.00 | 0.00 | 67 | 1016.9 |
| 20260831103012 | 53 | 90 | 0.0 | 0.0 | 0.00 | 0.00 | 0.00 | 66 | 1017.0 |
| 20260831101510 | 53 | 90 | 0.0 | 0.0 | 0.00 | 0.00 | 0.00 | 64 | 1017.1 |
| 20260831100008 | 53 | 90 | 0.0 | 0.0 | 0.00 | 0.00 | 0.00 | 64 | 1017.1 |
| 20260831094507 | 54 | 73 | 0.0 | 0.0 | 0.00 | 0.00 | 0.00 | 63 | 1017.2 |
| 20260831093003 | 54 | 68 | 0.0 | 0.0 | 0.00 | 0.00 | 0.00 | 62 | 1017.4 |
| 20260831091502 | 55 | 257 | 0.0 | 0.0 | 0.00 | 0.00 | 0.00 | 61 | 1017.4 |
| 20260831090100 | 55 | 257 | 0.0 | 0.0 | 0.00 | 0.00 | 0.00 | 62 | 1017.4 |
| 20260831084558 | 55 | 257 | 0.0 | 0.0 | 0.00 | 0.00 | 0.00 | 61 | 1017.5 |
| 20260831083056 | 56 | 257 | 0.0 | 0.0 | 0.00 | 0.00 | 0.00 | 60 | 1017.6 |
| 20260831081555 | 56 | 257 | 0.0 | 0.0 | 0.00 | 0.00 | 0.00 | 59 | 1017.6 |
| 20260831080053 | 56 | 257 | 0.0 | 0.0 | 0.00 | 0.00 | 0.00 | 58 | 1017.7 |
| 20260831074550 | 56 | 257 | 0.0 | 0.0 | 0.00 | 0.00 | 0.00 | 58 | 1017.8 |
| 20260831073051 | 57 | 257 | 0.0 | 0.0 | 0.00 | 0.00 | 0.00 | 57 | 1018.1 |
| 20260831071547 | 57 | 257 | 0.0 | 1.0 | 0.00 | 0.00 | 0.00 | 57 | 1018.0 |
| 20260831070045 | 58 | 257 | 0.0 | 0.0 | 0.00 | 0.00 | 0.00 | 56 | 1018.1 |
| 20260831064544 | 58 | 257 | 0.0 | 0.0 | 0.00 | 0.00 | 0.00 | 56 | 1018.2 |
| 20260831063043 | 58 | 257 | 0.0 | 0.0 | 0.00 | 0.00 | 0.00 | 55 | 1018.2 |
| 20260831061543 | 59 | 257 | 0.0 | 0.0 | 0.00 | 0.00 | 0.00 | 54 | 1018.3 |
| 20260831060043 | 60 | 257 | 0.0 | 0.0 | 0.00 | 0.00 | 0.00 | 54 | 1018.3 |
| 20260831054542 | 60 | 257 | 0.0 | 0.0 | 0.00 | 0.00 | 0.00 | 52 | 1018.4 |
| 20260831053043 | 61 | 257 | 0.0 | 0.0 | 0.00 | 0.00 | 0.00 | 51 | 1018.4 |
| 20260831051550 | 62 | 257 | 0.0 | 0.0 | 0.00 | 0.00 | 0.00 | 50 | 1018.4 |
| 20260831050041 | 63 | 257 | 0.0 | 0.0 | 0.00 | 0.00 | 0.00 | 48 | 1018.4 |
| 20260831044541 | 63 | 257 | 0.0 | 0.0 | 0.00 | 0.00 | 0.00 | 48 | 1018.4 |
| 20260831043040 | 64 | 257 | 0.0 | 0.0 | 0.00 | 0.00 | 0.00 | 46 | 1018.2 |
| 20260831041631 | 65 | 257 | 0.0 | 0.0 | 0.00 | 0.00 | 0.00 | 44 | 1018.1 |
| 20260831040039 | 67 | 257 | 0.0 | 0.0 | 0.00 | 0.00 | 0.00 | 43 | 1017.9 |
| 20260831034539 | 68 | 257 | 0.0 | 0.0 | 0.00 | 0.00 | 0.00 | 41 | 1017.7 |
| 20260831033039 | 70 | 257 | 0.0 | 0.0 | 0.00 | 0.00 | 0.00 | 39 | 1017.5 |
| 20260831031538 | 72 | 257 | 0.0 | 0.0 | 0.00 | 0.00 | 0.00 | 37 | 1017.5 |
| 20260831030037 | 74 | 257 | 0.0 | 0.0 | 0.00 | 0.00 | 0.00 | 35 | 1017.3 |
| 20260831024547 | 75 | 252 | 0.0 | 2.0 | 0.00 | 0.00 | 0.00 | 34 | 1017.2 |
| 20260831023036 | 77 | 281 | 0.0 | 3.0 | 0.00 | 0.00 | 0.00 | 32 | 1017.2 |
| 20260831021547 | 78 | 320 | 0.0 | 4.0 | 0.00 | 0.00 | 0.00 | 31 | 1017.1 |
| 20260831020035 | 79 | 262 | 0.0 | 5.0 | 0.00 | 0.00 | 0.00 | 31 | 1017.1 |